| time (UTC) | temp F | wind direction | speed knots | gust knots | rain 1hr in | rain 24hr in | rain mn in | humidity % | barometer mb |
| 20260901030109 | 62 | 0 | 0.0 | 0.0 | 0.00 | 0.03 | 0.03 | 100 | 1018.4 |
| 20260901024602 | 62 | 0 | 0.0 | 0.0 | 0.00 | 0.03 | 0.03 | 100 | 1018.5 |
| 20260901023106 | 62 | 0 | 0.0 | 0.0 | 0.00 | 0.03 | 0.03 | 100 | 1018.5 |
| 20260901021602 | 62 | 0 | 0.0 | 0.0 | 0.00 | 0.03 | 0.03 | 100 | 1018.5 |
| 20260901020058 | 62 | 0 | 0.0 | 0.0 | 0.00 | 0.03 | 0.03 | 100 | 1018.5 |
| 20260901014606 | 63 | 0 | 0.0 | 0.0 | 0.00 | 0.03 | 0.03 | 100 | 1018.7 |
| 20260901013109 | 63 | 0 | 0.0 | 0.0 | 0.00 | 0.03 | 0.03 | 100 | 1018.5 |
| 20260901011603 | 63 | 0 | 0.0 | 0.0 | 0.01 | 0.03 | 0.03 | 100 | 1018.5 |
| 20260901010105 | 63 | 0 | 0.0 | 0.0 | 0.02 | 0.03 | 0.03 | 100 | 1018.6 |
| 20260901004607 | 64 | 0 | 0.0 | 0.0 | 0.03 | 0.03 | 0.03 | 100 | 1018.6 |
| 20260901003109 | 64 | 0 | 0.0 | 0.0 | 0.03 | 0.03 | 0.03 | 100 | 1018.7 |
| 20260901001601 | 65 | 0 | 0.0 | 0.0 | 0.02 | 0.02 | 0.02 | 100 | 1018.6 |
| 20260831234606 | 66 | 0 | 0.0 | 0.0 | 0.00 | 0.00 | 0.00 | 100 | 1018.6 |
| 20260831233104 | 66 | 0 | 0.0 | 0.0 | 0.00 | 0.00 | 0.00 | 100 | 1018.6 |
| 20260831231615 | 67 | 0 | 0.0 | 0.0 | 0.00 | 0.00 | 0.00 | 100 | 1018.8 |
| 20260831230101 | 67 | 0 | 0.0 | 0.0 | 0.00 | 0.00 | 0.00 | 100 | 1018.9 |
| 20260831224605 | 67 | 0 | 0.0 | 0.0 | 0.00 | 0.00 | 0.00 | 100 | 1019.0 |
| 20260831223110 | 68 | 0 | 0.0 | 0.0 | 0.00 | 0.00 | 0.00 | 100 | 1019.1 |
| 20260831221603 | 68 | 0 | 0.0 | 0.0 | 0.00 | 0.00 | 0.00 | 100 | 1019.2 |
| 20260831220104 | 68 | 0 | 0.0 | 0.0 | 0.00 | 0.00 | 0.00 | 100 | 1019.0 |
| 20260831214559 | 68 | 0 | 0.0 | 0.0 | 0.00 | 0.00 | 0.00 | 100 | 1019.2 |
| 20260831213102 | 68 | 0 | 0.0 | 0.0 | 0.00 | 0.00 | 0.00 | 100 | 1019.3 |
| 20260831211624 | 69 | 0 | 0.0 | 0.9 | 0.00 | 0.00 | 0.00 | 100 | 1019.2 |
| 20260831210105 | 69 | 0 | 0.0 | 0.0 | 0.00 | 0.00 | 0.00 | 100 | 1019.3 |
| 20260831204603 | 69 | 0 | 0.0 | 0.0 | 0.00 | 0.00 | 0.00 | 11 | 1019.3 |
| 20260831203104 | 69 | 0 | 0.0 | 0.0 | 0.00 | 0.00 | 0.00 | 33 | 1019.4 |
| 20260831201610 | 69 | 0 | 0.0 | 0.0 | 0.00 | 0.00 | 0.00 | 56 | 1019.3 |
| 20260831200107 | 70 | 0 | 0.0 | 0.0 | 0.00 | 0.00 | 0.00 | 61 | 1019.4 |
| 20260831194642 | 70 | 0 | 0.0 | 0.9 | 0.00 | 0.00 | 0.00 | 58 | 1019.6 |
| 20260831193105 | 70 | 0 | 0.0 | 0.0 | 0.00 | 0.00 | 0.00 | 64 | 1019.8 |
| 20260831191604 | 70 | 0 | 0.0 | 0.0 | 0.00 | 0.00 | 0.00 | 60 | 1019.9 |
| 20260831190108 | 69 | 0 | 0.0 | 0.0 | 0.00 | 0.00 | 0.00 | 62 | 1020.1 |
| 20260831184603 | 69 | 0 | 0.0 | 0.9 | 0.00 | 0.00 | 0.00 | 56 | 1020.1 |
| 20260831183103 | 69 | 349 | 1.7 | 2.6 | 0.00 | 0.00 | 0.00 | 62 | 1020.5 |
| 20260831181603 | 69 | 311 | 1.7 | 4.3 | 0.00 | 0.00 | 0.00 | 67 | 1020.6 |
| 20260831180107 | 70 | 0 | 0.0 | 0.9 | 0.00 | 0.00 | 0.00 | 67 | 1020.6 |
| 20260831174605 | 70 | 217 | 0.9 | 3.5 | 0.00 | 0.00 | 0.00 | 68 | 1020.7 |
| 20260831173108 | 70 | 0 | 0.0 | 2.6 | 0.00 | 0.00 | 0.00 | 68 | 1020.9 |
| 20260831171603 | 70 | 0 | 0.0 | 0.0 | 0.00 | 0.00 | 0.00 | 68 | 1021.1 |
| 20260831170058 | 69 | 0 | 0.0 | 0.0 | 0.00 | 0.00 | 0.00 | 69 | 1021.4 |
| 20260831164604 | 70 | 107 | 0.0 | 2.6 | 0.00 | 0.00 | 0.00 | 69 | 1021.3 |
| 20260831163106 | 71 | 122 | 0.9 | 6.1 | 0.00 | 0.00 | 0.00 | 69 | 1021.1 |
| 20260831161606 | 71 | 126 | 1.7 | 7.0 | 0.00 | 0.00 | 0.00 | 69 | 1021.2 |
| 20260831160108 | 71 | 0 | 0.9 | 4.3 | 0.00 | 0.00 | 0.00 | 69 | 1021.3 |
| 20260831154639 | 70 | 111 | 0.9 | 7.8 | 0.00 | 0.00 | 0.00 | 70 | 1021.3 |
| 20260831153118 | 72 | 135 | 0.9 | 4.3 | 0.00 | 0.00 | 0.00 | 70 | 1021.4 |
| 20260831151607 | 71 | 186 | 1.7 | 5.2 | 0.00 | 0.00 | 0.00 | 70 | 1021.4 |
| 20260831144700 | 73 | 129 | 0.9 | 2.6 | 0.00 | 0.00 | 0.00 | 67 | 1021.2 |
| 20260831143106 | 73 | 0 | 1.7 | 3.5 | 0.00 | 0.00 | 0.00 | 68 | 1021.3 |
| 20260831141608 | 72 | 0 | 0.0 | 0.0 | 0.00 | 0.00 | 0.00 | 68 | 1021.0 |
| 20260831140100 | 72 | 0 | 0.0 | 1.7 | 0.00 | 0.00 | 0.00 | 67 | 1021.2 |
| 20260831134600 | 70 | 212 | 0.9 | 3.5 | 0.00 | 0.00 | 0.00 | 64 | 1021.0 |
| 20260831133110 | 69 | 203 | 0.0 | 0.9 | 0.00 | 0.00 | 0.00 | 48 | 1021.1 |
| 20260831131606 | 67 | 321 | 0.0 | 1.7 | 0.00 | 0.00 | 0.00 | 13 | 1021.1 |
| 20260831130110 | 65 | 135 | 0.0 | 0.9 | 0.00 | 0.00 | 0.00 | 100 | 1021.3 |
| 20260831124626 | 62 | 0 | 0.0 | 0.9 | 0.00 | 0.00 | 0.00 | 100 | 1021.1 |
| 20260831123106 | 60 | 0 | 0.0 | 0.0 | 0.00 | 0.00 | 0.00 | 100 | 1021.5 |
| 20260831121603 | 58 | 0 | 0.0 | 0.0 | 0.00 | 0.00 | 0.00 | 100 | 1021.2 |
| 20260831120109 | 58 | 0 | 0.0 | 0.0 | 0.00 | 0.00 | 0.00 | 100 | 1021.3 |
| 20260831114607 | 57 | 0 | 0.0 | 0.9 | 0.00 | 0.00 | 0.00 | 100 | 1021.2 |
| 20260831113111 | 57 | 0 | 0.0 | 0.0 | 0.00 | 0.00 | 0.00 | 100 | 1021.1 |
| 20260831111603 | 57 | 0 | 0.0 | 0.0 | 0.00 | 0.00 | 0.00 | 100 | 1021.0 |
| 20260831110108 | 56 | 0 | 0.0 | 0.0 | 0.00 | 0.00 | 0.00 | 100 | 1020.9 |
| 20260831104608 | 56 | 0 | 0.0 | 0.0 | 0.00 | 0.00 | 0.00 | 100 | 1020.7 |
| 20260831103058 | 56 | 0 | 0.0 | 0.9 | 0.00 | 0.00 | 0.00 | 100 | 1020.5 |
| 20260831101608 | 56 | 0 | 0.0 | 0.0 | 0.00 | 0.00 | 0.00 | 100 | 1020.5 |
| 20260831100127 | 57 | 0 | 0.9 | 1.7 | 0.00 | 0.00 | 0.00 | 100 | 1020.5 |
| 20260831094606 | 57 | 0 | 0.0 | 1.7 | 0.00 | 0.00 | 0.00 | 100 | 1020.3 |
| 20260831093103 | 57 | 316 | 0.9 | 3.5 | 0.00 | 0.00 | 0.00 | 100 | 1020.1 |
| 20260831091606 | 57 | 0 | 0.0 | 0.0 | 0.00 | 0.00 | 0.00 | 100 | 1020.2 |
| 20260831090104 | 57 | 0 | 0.0 | 0.0 | 0.00 | 0.00 | 0.00 | 100 | 1020.4 |
| 20260831084636 | 57 | 210 | 0.0 | 0.9 | 0.00 | 0.00 | 0.00 | 100 | 1020.5 |
| 20260831083101 | 57 | 0 | 0.0 | 0.0 | 0.00 | 0.00 | 0.00 | 100 | 1020.4 |
| 20260831081558 | 57 | 0 | 0.0 | 0.0 | 0.00 | 0.00 | 0.00 | 100 | 1020.4 |
| 20260831080128 | 58 | 0 | 0.0 | 0.0 | 0.00 | 0.00 | 0.00 | 100 | 1020.4 |
| 20260831074607 | 59 | 0 | 0.0 | 0.0 | 0.00 | 0.00 | 0.00 | 100 | 1020.2 |
| 20260831073111 | 59 | 0 | 0.0 | 0.0 | 0.00 | 0.00 | 0.00 | 100 | 1020.0 |
| 20260831071614 | 60 | 0 | 0.0 | 0.0 | 0.00 | 0.00 | 0.00 | 100 | 1019.9 |
| 20260831070104 | 61 | 0 | 0.9 | 1.7 | 0.00 | 0.00 | 0.00 | 100 | 1020.0 |
| 20260831064604 | 61 | 0 | 0.0 | 0.9 | 0.00 | 0.00 | 0.00 | 100 | 1019.9 |
| 20260831063107 | 62 | 0 | 0.0 | 0.0 | 0.00 | 0.00 | 0.00 | 100 | 1019.7 |
| 20260831061606 | 63 | 0 | 0.0 | 0.0 | 0.00 | 0.00 | 0.00 | 100 | 1020.0 |
| 20260831060109 | 63 | 0 | 0.0 | 0.0 | 0.00 | 0.00 | 0.00 | 24 | 1019.9 |
| 20260831054557 | 64 | 0 | 0.0 | 1.7 | 0.00 | 0.00 | 0.00 | 53 | 1019.7 |
| 20260831053124 | 66 | 211 | 0.0 | 6.1 | 0.00 | 0.00 | 0.00 | 67 | 1019.7 |
| 20260831051602 | 66 | 271 | 1.7 | 6.1 | 0.00 | 0.00 | 0.00 | 64 | 1019.8 |
| 20260831050127 | 67 | 330 | 0.0 | 9.6 | 0.00 | 0.00 | 0.00 | 68 | 1019.9 |
| 20260831044605 | 66 | 0 | 0.0 | 1.7 | 0.00 | 0.00 | 0.00 | 62 | 1020.0 |
| 20260831043104 | 66 | 145 | 0.0 | 3.5 | 0.00 | 0.00 | 0.00 | 65 | 1019.9 |
| 20260831041617 | 68 | 217 | 0.9 | 3.5 | 0.00 | 0.00 | 0.00 | 69 | 1019.9 |
| 20260831040059 | 67 | 303 | 1.7 | 7.0 | 0.00 | 0.00 | 0.00 | 69 | 1019.9 |
| 20260831034600 | 66 | 212 | 0.0 | 3.5 | 0.00 | 0.00 | 0.00 | 68 | 1019.8 |
| 20260831033110 | 67 | 115 | 0.0 | 2.6 | 0.00 | 0.00 | 0.00 | 69 | 1019.7 |
| 20260831031600 | 67 | 208 | 0.0 | 7.8 | 0.00 | 0.00 | 0.00 | 69 | 1019.6 |